Regional Weather Roundup
Issued by NWS Wakefield, VA

Home | Current Version | Previous Version | Text Only | Print | Product List | Glossary On
Versions: 1 2 3 4 5 6 7 8 9 10 11 12 13 14 15 16 17 18 19 20 21 22 23 24 25 26 27 28 29 30 31 32 33 34 35 36 37 38 39 40 41 42 43 44 45 46 47 48 49 50
000
ASUS41 KAKQ 010315
RWRAKQ

REGIONAL WEATHER ROUNDUP
NATIONAL WEATHER SERVICE WAKEFIELD VA
1100 PM EDT SUN APR 30 2017

Note: "fair" indicates few or no clouds below 12,000 feet with no
significant weather and/or obstructions to visibility. * = Denotes
station may not report precipitation (e.g., rain,snow,etc.),
thunder or fog.

VAZ042-051-052>054-056-010400-
NORTHERN VIRGINIA

CITY           SKY/WX    TMP DP  RH WIND       PRES   REMARKS
WASH NATIONAL  PTCLDY    71  66  84 NE12      30.03S
DULLES         PTCLDY    75  62  64 S8        30.01S
FORT BELVOIR   CLEAR     70  64  83 CALM      30.01F
QUANTICO       CLEAR     77  67  71 SW10      30.02S
FREDERICKSBRG* CLEAR     77  65  66 S9        30.02S
STAFFORD*      CLEAR     74  64  69 S6        30.06S
WARRENTON      CLEAR     76  60  57 S5        30.01F
CULPEPER*      CLEAR     75  65  70 S5        30.02S
MANASSAS*        N/A     73  64  73 S9        30.01F
LEESBURG*      CLEAR     77  64  65 SE7       30.01F
WINCHESTER     CLEAR     70  59  68 S6        29.98F
FRONT ROYAL*   CLEAR     73  61  64 S7        29.99S
LURAY*         CLEAR     72  61  68 S6        30.01S
$$

VAZ048-049-060>072-079>083-010400-
CENTRAL AND SOUTH CENTRAL VIRGINIA

CITY           SKY/WX    TMP DP  RH WIND       PRES   REMARKS
RICHMOND       MOCLDY    75  67  76 S7        30.05F
CHESTERFIELD*  FAIR     N/A N/A N/A S6        30.07F
PETERSBURG*    PTCLDY    75  65  71 S3        30.07F
HANOVER        MOCLDY    79  64  60 S9        30.06S
TAPPAHANNOCK*  CLEAR     76  59  55 S6        30.06S
QUINTON*       CLOUDY    77  68  73 S6        30.06S
CHARLOTTSVILLE CLEAR     75  63  66 S10       30.02S
GORDONSVILLE*  PTCLDY    71  65  80 CALM      30.03S
ORANGE*        CLEAR     72  63  73 S5        30.02F
LOUISA*        CLEAR     79  66  65 S6        30.03F
BUMPASS*       FAIR      74  65  74 S3        30.04S
FARMVILLE*     PTCLDY    73  65  76 S7        30.05S
CREWE*         FAIR      73  72  98 S5        30.06S
FORT PICKETT*  NOT AVBL
CHASE CITY*    FAIR      73  66  80 S6        30.08S
CLARKSVILLE*   MOCLDY    72  68  88 S5        30.08R
SOUTH HILL*    CLEAR     72  69  91 S6        30.14S
LAWRENCEVILLE* FAIR      73  68  86 S5        30.08F
EMPORIA*       PTCLDY    72  66  83 SE3       30.10F
$$

VAZ088>098-010400-
SOUTHEAST VIRGINIA

CITY           SKY/WX    TMP DP  RH WIND       PRES   REMARKS
NORFOLK        PTCLDY    78  68  71 S14       30.10R
VIRGINIA BEACH MOCLDY    76  66  71 S12       30.10R
NORFOLK NAVAL  PTCLDY    78  67  68 SW9       30.11R
WEST POINT*    MOCLDY    78  65  64 S6        30.08S
SALUDA*        CLOUDY    77  68  72 S6        30.07R
NEWPORT NEWS   PTCLDY    78  67  68 S14       30.08S
LANGLEY AFB    CLOUDY    78  68  71 S12       30.08S
FORT EUSTIS    CLEAR     77  69  76 S7        30.06S
WILLIAMSBURG*  PTCLDY    79  70  73 CALM      30.09S
HR EXEC AP*    FAIR      75  66  73 S9        30.08S
FRANKLIN*      CLEAR     74  64  69 S7        30.10F
US460-WAKEFLD  PTCLDY    76  68  76 S6        30.08F
$$

VAZ020-022-025-037-045-010400-
WEST CENTRAL AND SOUTHWEST VIRGINIA

CITY           SKY/WX    TMP DP  RH WIND       PRES   REMARKS
STAUNTON*      CLOUDY    71  62  72 S7        30.05S
WAYNESBORO*    PTCLDY    72  64  76 S8        30.06S
HOT SPRINGS VA CLOUDY    63  57  82 S12G18    30.16F
LYNCHBURG      CLOUDY    70  64  81 S5        30.08S
DANVILLE       PTCLDY    70  66  87 VRB3      30.07S
SOUTH BOSTON*  FAIR      71  66  85 S3        30.07S
MARTINSVILLE   MOCLDY    70  65  85 S3        30.09F
ROANOKE        PTCLDY    72  65  78 S10       30.07F
BLACKSBURG     MOCLDY    69  63  79 CALM      30.12F
DUBLIN*        CLOUDY    70  60  70 S5        30.10S
MARION*        CLOUDY    72  60  67 S7        30.11F
HILLSVILLE*    CLOUDY    67  66  96 S10G18    30.10F
RICHLANDS*     FAIR      70  57  64 SE7       30.05F
WISE*          CLOUDY    70  52  52 S8        30.04F
ABINGDON*      CLOUDY    73  58  59 S5        30.04F
$$

MDZ021>025-VAZ099-100-010400-
SOUTHERN MARYLAND AND THE DELMARVA PENINSULA

CITY           SKY/WX    TMP DP  RH WIND       PRES   REMARKS
PATUXENT RIVER CLEAR     75  67  76 S3        30.04S
BAY BRIDGE APT CLEAR     61  59  94 E7        30.06S
LEONARDTOWN    PTCLDY    73  63  68 CALM      30.06S
DOVER          CLOUDY    56  56 100 E9        30.09F
GEORGETOWN     CLOUDY    59  57  93 NE8       30.10S FOG
EASTON         CLEAR     61  58  88 E6        30.11S
CAMBRIDGE        N/A     68  63  83 CALM      30.06S
SALISBURY      CLEAR     69  66  90 E3        30.06S
OCEAN CITY     PTCLDY    69  66  90 SW8       30.09S
WALLOPS ISLAND PTCLDY    68  66  93 S13       30.08S
ACCOMACK*      PTCLDY    73  68  85 S9        30.08R
$$

NCZ012>017-030>032-010400-
NORTH CENTRAL AND EASTERN NORTH CAROLINA

CITY           SKY/WX    TMP DP  RH WIND       PRES   REMARKS
ROANOKE RAPIDS FAIR      72  64  78 S6        30.10F
RALEIGH        MOCLDY    72  66  81 S10G18    30.11R
ELIZABETH CITY PTCLDY    74  69  85 S13G22    30.13S
AHOSKIE*         N/A     72  62  71 S6        30.12S
EDENTON*       PTCLDY    75  68  79 S14G20    30.14S
CURRITUCK*     PTCLDY    74  68  79 S7        30.13S
KILL DEVIL HLS PTCLDY    73  68  82 SW12G18   30.14S
MANTEO         PTCLDY    73  70  88 SW17      30.16S
CAPE HATTERAS  CLEAR     74  69  85 SW12      30.18S HAZE
TARBORO*       NOT AVBL
GOLDSBORO      CLEAR     73  70  91 S8        30.13R
WASHINGTON     CLEAR     72  68  87 S8        30.16R
GREENVILLE     CLEAR     72  70  94 S15       30.15S
NEW BERN       CLEAR     71  69  93 S6        30.18S
WILMINGTON     CLEAR     72  69  90 S7        30.18R
$$

VAZ048-010400-
ELSEWHERE

CITY           SKY/WX    TMP DP  RH WIND       PRES   REMARKS
HARRISBURG PA  MOCLDY    60  49  66 E14       30.06R
BALTIMORE      MOCLDY    62  60  93 E12       30.06S
ANNAPOLIS      CLEAR     64  62  93 E9        30.05S
ANDREWS AFB    CLEAR     69  64  84 NE7       30.03S
PHILADELPHIA   CLOUDY    52  49  89 E9        30.13S
GREENSBORO     MOCLDY    72  68  87 S10       30.08S
ROCKY MOUNT    CLEAR     73  64  73 S10       30.12R
$$

VAZ100-010400-
MARINE

STATION/POSITION TIME  TEMP    WIND        PRES    WAVE   SWELL
                       AIR SEA DIR/SP/G            HT/PER HT/PER
                 (UTC) (F)     (DEG/KT/KT) (MB)    (FT/S) (FT/S)
CAPE MAY NJ      0242   55 60   70/  7/ 12 1018.7F
LEWES DE         0242   55 61   90/ 11/ 13 1019.1R
15NM E FENWICK I 0250   62 58  190/ 16/ 17 1018.5F   3/ 5
OCEAN-CITY-INLET 0242   62 58  220/ 11/ 12 1018.9
WACHAPREAGUE VA  0242   72 76  200/ 11/ 16 1018.2S
THOMAS POINT MD  0300   62 62   90/ 11/ 12   N/A
GOOSES REEF MD   0300   70 59  170/ 10/ 10 1017.8    1
COVE POINT MD    0242   72     180/  7/  8 1018.1R
SOLOMONS ISLAND  0224   74 63  180/  5/  6   N/A
BISHOPS HEAD MD  0242   73 75  160/ 10/ 11 1018.1S
PINEY POINT MD   0242          210/ 11/ 12   N/A
POTOMAC MD       0300   70 66  210/  4/  6 1016.8    1
CAMBRIDGE MD     0242   67 70                N/A
LEWISETTA VA     0242   77 74  230/  6/  8 1017.3R
RAPPAHANNOCK LGT 0242          160/ 13/ 14 1018.9S
STINGRAY PT      0250   70     190/ 10/ 12 1018.2F
YORK RVR RNG VA  0242   77     210/ 15/ 17 1017.8F
YORKTOWN VA      0242   80 70  200/  9/ 14 1018.2R
JAMESTOWN VA     0300   77 74  180/  6/  8   N/A     0
DOMINION TERM VA 0242   77     200/ 10/ 12 1019.1R
KIPTOPEKE VA     0242      69  190/  9/ 11   N/A
CHES BAY BRIDGE  0242   77 65  220/ 14/ 16 1018.8R
CAPE HENRY VA    0242   78     190/ 10/ 16   N/A
WILLOUBY STN VA  0242   78     200/ 16/ 18 1020.0R
S CRANEY ISL VA  0242   78     200/ 10/ 13 1019.0R
CAPE HENRY BUOY  0242      65                N/A     3/ 5
1ST LANDING BUOY 0300   73 67              1019.1    1/ 3
CAPE CHARLES BUO 0251      62                N/A     2/ 4
64NM E OF VA BCH 0250   64 60  210/ 14/ 17 1020.8F   3/ 5   2/ 7
DUCK PIER NC     0242   74 58  200/ 15/ 23 1019.9F
44100 DUCK FRF   0205      62                N/A     2/ 4
44056 DUCK FRF   0230      60                N/A     2/ 7
OREGON INLET NC  0242   75 79  190/ 21/ 25 1021.1S
HATTERAS NC      0242   74 76  210/ 10/ 16 1021.8S
DIAMOND SHLS NC  0250   76 75  210/ 16/ 17 1022.0F   3/ 5   2/ 7
CAPE LOOKOUT NC  0300   74     180/ 13/ 15 1021.5F
$$



USA.gov is the U.S. government's official web portal to all federal, state and local government web resources and services.